Location: Theydon Bois
(51.6750°N, 0.1050°E)
Time: 06:53:08
(UTC+00:00)

Envisat - Pass Details

Date: 10 December 2019
Orbit: 764 x 766 km, 98.1° (Epoch: 20 January)

Event Time Altitude Azimuth Distance (km) Brightness Sun altitude
Rises 19:18:06 0° 214° (SSW) 3,224 6.6 -31.0°
Reaches altitude 10° 19:21:17 10° 235° (SW) 2,304 6.1 -31.4°
Maximum altitude 19:24:25 16° 273° (W) 1,908 5.8 -31.9°
Drops below altitude 10° 19:27:34 10° 312° (NW) 2,315 6.0 -32.4°
Sets 19:30:47 0° 333° (NNW) 3,247 6.6 -32.9°
